Dewpoint
30 30 30 29 28 27 27 27 25 29 28 27 33 36 37 37 36 35 33 33 33 32 32 32 32 32 31 32 32 30 28 27 26 25 24 24 23 20 20 20 20 21 23 22
26 28 29 26 28 27 27 28 31 30 28 35 35 35 37 37 36 35 34 33 33 33 33 32 32 31 31 32 31 29 28 27 26 24 23 23 23 21 20 20 20 21 22 24
20 26 28 23 24 25 27 31 30 24 27 31 33 36 35 36 37 36 36 34 34 34 33 32 32 32 32 32 30 28 28 27 25 24 22 22 21 19 19 18 19 19 21 23
23 26 16 17 27 26 27 28 32 29 29 31 32 34 36 37 35 37 38 37 36 34 33 33 34 33 32 31 30 30 28 25 25 23 21 20 19 17 16 15 15 15 17 20
21 21 21 18 16 27 28 22 29 31 30 30 32 34 34 37 37 37 40 40 38 36 35 36 33 32 31 30 30 29 26 25 24 23 20 18 16 15 15 14 13 13 13 15
23 18 11 14 25 29 27 17 25 27 27 29 33 29 30 35 35 35 34 37 41 40 36 34 33 32 31 30 29 27 27 25 24 22 20 15 15 14 12 11 12 12 13 13
23 20 19 21 21 26 17 15 23 27 26 31 29 30 33 33 33 32 33 34 39 35 33 33 33 32 30 29 28 28 26 25 23 21 18 16 15 14 11 10 10 10 11 10
24 21 17 22 25 22 23 25 26 26 27 30 31 32 32 31 31 31 32 32 33 33 33 34 32 31 29 28 28 27 24 24 23 20 19 18 16 13 11 10 9 9 10 11
21 19 22 24 25 26 28 27 27 27 29 32 31 31 31 31 31 30 31 31 31 31 30 29 30 29 28 26 26 24 23 23 23 22 21 19 15 12 11 11 10 10 11 10
23 23 24 26 28 28 29 30 32 32 33 33 31 32 31 31 30 30 31 30 29 28 28 27 27 27 26 26 25 23 22 22 22 22 21 20 16 14 12 11 11 12 10 10
23 23 25 26 28 27 29 34 34 34 34 34 32 31 31 30 30 30 30 29 27 26 26 25 25 26 26 26 24 22 20 21 22 22 22 21 19 16 13 13 13 11 9 11
20 21 18 17 26 32 33 34 34 34 33 33 32 31 31 30 30 30 30 29 27 26 25 24 26 26 26 26 23 20 21 21 21 20 20 18 18 18 18 15 13 13 13 11
19 21 24 28 32 34 33 33 34 34 34 32 32 32 31 30 30 30 30 30 28 27 26 26 26 26 26 26 22 21 20 20 19 18 17 18 17 16 15 14 13 13 13 14
27 28 29 33 30 31 33 34 35 33 33 32 32 31 31 30 30 29 29 29 29 28 27 26 25 25 26 26 25 23 22 19 18 17 16 16 16 15 15 14 12 13 14 17
27 32 31 32 32 33 33 32 31 30 30 30 30 30 30 29 29 29 30 29 28 27 26 25 24 24 26 26 24 23 22 17 17 17 16 16 16 15 15 13 11 12 11 15
29 31 31 31 30 32 32 31 30 29 29 29 29 28 29 29 29 28 28 28 26 24 25 24 24 24 26 26 24 23 21 18 16 16 16 16 15 14 14 12 11 9 11 12
27 29 30 30 30 31 31 31 31 29 30 29 28 29 29 28 27 26 26 26 26 25 25 25 24 26 26 25 23 21 21 19 17 16 15 15 15 14 14 13 10 7 10 9
29 31 31 31 30 30 30 30 29 29 29 28 28 27 26 25 24 23 22 22 22 23 24 24 25 26 25 25 23 23 21 18 17 16 16 16 15 14 14 13 11 7 7 7
33 31 31 29 29 29 29 29 28 28 28 27 26 25 23 21 21 20 21 21 20 20 20 23 25 25 24 25 23 22 20 19 18 17 17 17 16 15 15 13 10 8 7 7
29 28 27 27 27 28 27 27 26 27 27 26 22 21 20 19 19 19 20 19 20 21 22 23 23 23 23 23 22 21 19 18 17 16 16 15 15 14 13 12 9 8 7 7
26 25 24 24 24 24 25 25 26 26 25 24 23 22 19 17 18 18 18 18 18 22 22 23 22 22 22 21 20 19 17 16 15 15 14 13 12 12 11 10 9 7 7 6
22 22 22 22 23 23 22 23 23 22 21 20 20 18 18 17 18 18 18 18 19 21 21 22 22 21 20 20 18 17 16 15 14 13 11 11 10 9 9 9 7 6 6 5
22 21 21 22 22 20 20 20 19 19 20 19 19 18 18 18 18 18 19 19 19 20 20 20 21 21 20 19 17 16 14 13 13 12 10 9 8 8 7 7 7 6 5 5
23 23 22 21 21 22 22 21 20 19 19 19 18 18 19 19 19 19 19 18 18 19 18 19 20 19 19 16 15 14 13 12 11 10 10 9 8 7 7 7 7 6 5 4
25 25 24 24 23 23 22 21 20 19 19 19 19 20 20 19 18 18 18 18 18 17 18 18 18 17 16 15 14 13 12 11 10 10 10 9 8 7 6 6 6 5 4 3
24 24 24 24 24 23 23 21 19 18 17 16 17 18 19 19 18 18 17 17 17 17 17 15 15 15 15 14 13 12 11 10 10 9 9 8 8 7 6 5 4 3 2 1
25 25 24 25 24 23 22 21 19 18 16 16 16 15 17 17 17 16 16 15 15 15 15 15 14 14 13 13 12 11 10 10 9 8 7 6 6 5 4 4 3 2 1 -1
Wind_Speed
18 15 10 11 15 18 16 15 11 21 22 36 7 7 5 8 9 18 22 24 26 26 25 25 25 24 22 22 21 19 19 19 15 15 15 13 12 10 10 10 10 8 7 7
15 19 17 14 20 16 23 22 14 12 20 15 10 11 6 6 14 17 18 24 22 25 32 31 28 26 27 25 22 20 19 18 16 15 14 13 11 10 10 10 9 9 7 9
16 5 3 13 21 18 16 10 8 14 10 11 14 17 14 10 12 16 17 20 24 29 28 27 26 23 23 24 23 22 20 18 17 18 15 13 12 11 12 11 9 10 9 7
7 4 10 11 6 10 21 15 21 16 17 16 17 13 15 17 16 16 18 22 26 24 22 22 21 24 26 25 23 22 20 19 18 18 18 15 13 14 14 13 11 11 10 7
8 11 10 17 11 8 11 15 22 22 19 17 18 13 19 18 10 10 12 24 19 20 20 20 27 28 26 26 25 24 22 20 18 19 19 17 18 17 14 16 14 11 8 10
8 6 8 4 3 2 2 15 2 6 8 7 8 9 17 4 9 10 9 11 17 21 24 25 26 27 27 26 26 23 21 21 19 18 19 20 21 19 10 16 15 12 11 7
16 9 10 12 14 1 4 8 4 1 5 3 8 9 4 6 6 6 6 3 13 24 28 26 26 25 24 24 23 21 21 20 19 17 18 19 18 16 15 17 15 13 12 10
14 8 17 13 3 10 6 2 4 8 9 9 9 6 4 1 2 3 7 12 16 20 20 21 24 25 24 22 20 22 22 21 20 21 18 16 19 14 15 16 14 11 11 12
17 14 7 6 9 5 1 8 12 10 12 8 7 6 3 2 2 7 9 11 13 20 20 18 21 23 24 20 24 23 22 21 21 21 19 18 19 17 15 13 13 12 11 11
8 12 14 12 7 9 7 9 8 11 10 7 7 5 4 4 5 5 7 10 14 17 19 18 18 20 22 23 21 22 21 20 20 20 21 19 16 14 14 13 13 11 12 11
5 7 3 9 11 16 13 6 4 1 3 2 3 4 6 7 7 8 9 10 11 15 16 17 18 20 21 23 23 22 21 20 19 17 17 18 16 16 14 10 12 14 12 11
10 11 9 5 4 5 7 7 8 4 2 2 4 6 6 7 9 10 11 11 10 12 16 17 18 20 20 21 22 24 22 18 18 16 15 15 15 13 12 13 13 13 11 8
4 7 8 6 4 6 6 8 8 7 6 8 6 6 7 6 10 10 10 12 13 14 14 17 19 19 20 21 22 22 20 19 17 16 15 15 15 16 17 13 15 13 10 8
5 3 5 7 7 7 6 3 3 3 6 7 7 8 6 6 8 10 11 11 14 15 16 16 17 18 19 19 20 19 18 19 17 16 15 14 15 16 16 16 15 8 6 5
8 9 7 3 5 6 9 12 11 9 9 9 7 7 6 6 8 8 10 13 14 15 16 17 18 18 19 19 20 20 19 16 16 15 14 15 15 15 14 15 15 12 7 6
4 2 2 2 3 5 7 9 12 11 11 10 9 8 8 7 8 10 11 14 18 17 18 18 18 19 19 19 20 17 16 19 17 16 16 15 14 15 14 14 14 13 12 13
5 4 6 5 7 8 8 6 8 13 12 11 9 9 10 10 9 9 9 9 11 15 16 18 18 19 18 18 19 16 15 16 17 15 15 15 15 15 14 14 13 13 13 11
9 7 7 5 9 10 7 6 8 12 12 12 11 12 11 11 11 10 10 11 12 11 11 15 17 18 17 18 16 15 14 15 15 15 14 14 14 14 14 13 13 13 11 10
9 6 7 7 12 10 9 9 10 11 12 12 11 8 9 10 11 11 11 12 12 14 10 13 17 17 16 16 15 13 14 15 14 13 14 14 14 13 13 13 13 13 13 13
9 8 12 12 12 10 11 10 14 13 11 11 13 12 11 11 13 13 11 9 5 5 12 14 15 15 15 16 16 13 15 15 15 14 14 14 14 13 13 13 13 14 14 13
10 11 14 16 14 12 12 13 14 12 10 12 14 12 13 12 12 13 12 9 4 12 13 13 12 13 12 15 13 14 15 15 14 14 14 13 13 12 12 12 13 14 14 13
9 13 15 15 16 14 10 10 11 11 12 12 12 14 15 13 11 9 5 7 9 11 12 12 12 14 14 14 11 13 13 13 13 13 13 13 13 13 13 13 13 13 13 12
12 14 14 14 15 14 12 11 8 9 12 13 14 15 13 11 11 11 8 5 11 11 11 11 13 15 16 11 11 12 13 13 13 13 13 12 13 13 13 13 12 12 12 12
15 14 13 13 13 11 11 7 9 7 8 8 9 11 12 12 7 4 6 12 13 13 12 13 14 15 13 11 11 12 12 12 12 12 11 11 11 11 11 11 12 11 11 11
9 9 10 9 7 8 11 9 9 8 9 9 8 7 7 7 4 7 10 11 14 12 12 12 14 14 11 11 11 12 11 11 11 11 11 11 12 12 11 11 11 12 11 11
8 8 7 7 8 9 9 7 7 7 9 9 7 7 8 7 9 11 11 12 12 12 12 12 12 12 12 12 12 12 11 11 11 10 11 11 10 10 11 11 10 11 11 11
8 9 9 7 7 9 9 8 8 9 9 11 9 7 8 8 10 10 11 12 12 11 11 11 11 12 11 10 10 10 10 10 10 10 10 10 10 11 11 10 10 10 9 10
Wind_Direction
236 237 248 253 259 289 288 271 273 313 288 260 292 291 226 187 175 167 172 170 173 167 167 170 173 173 166 167 163 156 146 143 143 130 123 120 112 111 101 87 76 72 71 82
255 237 232 272 256 258 258 267 243 296 325 338 340 334 348 174 175 201 198 177 185 184 176 180 179 174 173 171 161 150 147 140 137 132 125 121 123 118 101 90 81 79 90 80
264 202 259 272 254 236 237 224 228 255 231 257 285 311 294 286 207 213 211 193 180 204 196 180 179 172 166 159 151 152 141 143 144 135 134 129 128 123 109 99 93 89 77 90
267 214 248 250 214 216 225 240 220 255 262 263 247 230 268 280 259 250 220 212 208 193 194 183 166 162 158 153 146 143 151 148 149 140 134 132 128 120 113 108 103 90 81 84
235 217 287 293 269 198 209 263 237 235 267 280 265 235 271 270 270 285 219 216 214 200 186 169 159 159 154 151 150 151 155 151 149 147 140 137 132 130 122 113 101 90 86 95
188 218 239 247 288 206 238 283 196 196 255 277 160 217 261 311 317 302 303 265 207 176 160 162 163 153 154 152 152 157 154 153 148 146 142 142 136 134 120 112 108 103 88 74
209 219 266 239 246 292 232 261 208 313 308 222 216 236 288 331 326 323 311 296 169 157 161 159 154 152 152 152 161 149 148 143 142 140 141 139 135 130 128 117 113 106 102 77
216 223 253 214 179 202 219 308 315 309 293 265 264 281 282 95 59 27 103 108 122 134 142 147 149 151 149 154 144 142 143 141 138 138 143 146 132 134 126 129 130 122 115 86
191 210 230 219 211 205 216 278 288 286 284 245 238 247 230 311 99 115 121 116 122 132 136 146 153 150 147 146 141 141 138 139 140 143 149 144 140 136 134 143 140 139 128 109
166 227 230 234 259 281 285 266 287 286 289 235 223 185 176 146 130 108 114 118 130 135 140 144 142 143 140 140 142 137 136 141 147 153 151 148 143 145 149 151 148 143 136 124
222 249 268 269 255 264 267 271 292 6 306 247 191 191 176 156 148 141 132 127 136 140 142 141 141 135 141 141 141 140 142 148 149 153 145 149 152 160 159 166 161 156 151 141
210 195 184 196 201 237 246 270 277 239 166 164 160 187 168 169 158 158 149 139 136 137 138 139 136 138 141 142 147 145 146 149 150 146 142 139 142 136 152 158 157 147 145 143
183 197 193 163 216 215 226 249 254 231 179 160 157 160 161 170 165 158 145 141 148 149 143 142 140 141 145 148 151 150 147 148 146 146 144 147 145 139 137 147 150 151 154 143
203 205 243 204 218 189 195 180 121 127 132 144 146 133 149 167 152 155 161 149 142 141 141 144 143 144 146 146 148 143 145 150 149 148 147 146 145 143 145 153 160 141 133 130
236 212 228 221 173 155 133 136 138 149 138 133 139 142 154 166 167 159 143 141 141 141 140 142 143 144 144 144 145 145 146 148 145 142 146 146 144 144 147 153 158 148 129 105
138 126 92 191 159 142 140 156 150 161 153 146 155 158 149 159 150 146 144 145 150 158 153 151 153 154 152 148 146 146 148 147 146 146 147 147 150 152 152 157 163 168 166 156
185 187 161 166 174 184 203 172 166 161 152 157 163 150 142 148 141 145 150 153 152 154 156 154 151 152 152 149 150 151 149 153 153 151 158 159 160 163 163 165 174 178 179 171
214 185 153 184 206 179 166 157 153 154 162 160 154 149 151 165 162 154 147 134 128 128 143 148 147 147 147 152 150 149 151 158 160 162 159 161 164 165 168 172 177 180 178 173
174 161 171 194 155 154 149 151 154 150 143 145 143 147 155 149 147 144 138 140 147 156 159 145 147 144 148 148 144 147 153 155 157 156 160 158 158 162 167 172 176 177 172 172
103 116 126 120 106 124 136 137 137 129 127 125 128 135 136 141 143 140 137 133 138 152 143 145 140 141 141 140 138 147 149 151 151 151 152 156 160 163 168 170 171 172 174 177
108 114 111 106 97 94 114 130 130 131 135 145 149 155 151 146 144 140 141 145 133 142 138 135 133 136 134 135 136 141 145 147 152 157 160 163 163 167 170 172 174 174 178 181
114 112 105 107 106 99 89 107 124 131 135 134 133 140 140 142 136 113 101 156 158 146 141 138 137 135 137 134 136 145 148 151 153 154 160 163 168 174 179 178 181 181 180 178
106 105 107 113 116 111 96 89 100 133 142 147 151 155 154 158 158 150 151 147 148 148 136 138 137 135 135 132 141 147 150 154 159 163 167 172 176 177 178 182 183 179 179 181
113 110 111 118 120 116 107 97 98 103 116 121 138 147 143 143 124 105 121 150 152 148 146 146 147 144 142 146 146 153 156 160 163 165 167 167 172 173 176 179 185 183 183 182
130 129 133 145 130 115 121 120 107 105 107 110 122 132 130 135 150 163 145 150 153 146 148 150 150 148 147 149 152 157 160 160 162 162 167 173 176 179 181 183 187 187 188 190
143 146 146 136 140 135 134 137 132 141 135 128 122 128 128 116 126 141 144 147 151 149 148 148 149 148 151 153 156 158 157 157 160 165 168 171 174 179 183 185 183 185 189 191
140 139 135 128 134 143 148 148 154 175 173 163 154 160 147 137 135 138 142 148 152 150 149 148 153 154 153 152 151 151 150 152 156 158 162 166 172 176 179 183 184 182 182 184